Pittsburgh Allegheny Co., PA

2:16 AM EDT on September 18, 2019 (GMT -0400)
Allegheny County

Weather History for KAGC - August, 2019

Change the Weather History Date:

Thursday, August 22, 2019

  Actual Average Record
Temperature  
Mean Temperature 73 °F -  
Max Temperature 81 °F 78 °F 91 °F (2002)
Min Temperature 66 °F 58 °F 50 °F (1969)
Cooling Degree Days 8    
Growing Degree Days 23 (Base 50)    
Moisture  
Dew Point 67 °F    
Average Humidity 85    
Maximum Humidity 93    
Minimum Humidity 64    
Precipitation  
Precipitation 0.15 in - - ()
Sea Level Pressure  
Sea Level Pressure 29.96 in    
Wind  
Wind Speed 7 mph ()    
Max Wind Speed 15 mph    
Max Gust Speed 31 mph    
Visibility 9.1 miles    
Events Rain , Thunderstorm    
Averages and records for this station are not official NWS values.
T = Trace of Precipitation, MM = Missing Value Source: Averaged Metar Reports

Daily Weather History Graph

Daily Weather History Graph

Search for Another Location

Airport or City:

Astronomy

Aug. 22, 2019 Rise Set
Actual Time 6:37 AM EDT 8:07 PM EDT
Civil Twilight 6:08 AM EDT 8:35 PM EDT
Nautical Twilight 5:34 AM EDT 9:10 PM EDT
Astronomical Twilight 4:57 AM EDT 9:46 PM EDT
Moon 11:55 PM EDT (8/22) 1:12 PM EDT (8/22)
Length of Visible Light 14h 27m
Length of Day
13h 30m
Waning Gibbous, 60% of the Moon is Illuminated
Aug 22
Waning Gibbous
Aug 23
Last Quarter
Aug 30
New
Sep 5
First Quarter
Sep 14
Full

Hourly Weather History & Observations

Time (EDT) Temp. Heat Index Dew Point Humidity Pressure Visibility Wind Dir Wind Speed Gust Speed Precip Events Conditions
12:53 AM 71.1 °F - 66.9 °F 87% 29.96 in 10.0 mi SSW 6.9 mph - N/A   Clear
1:53 AM 70.0 °F - 66.9 °F 90% 29.94 in 10.0 mi South 6.9 mph - N/A   Clear
2:53 AM 70.0 °F - 66.9 °F 90% 29.93 in 10.0 mi SW 8.1 mph - N/A   Clear
3:53 AM 70.0 °F - 66.0 °F 87% 29.94 in 10.0 mi West 9.2 mph - N/A   Partly Cloudy
4:53 AM 70.0 °F - 66.0 °F 87% 29.94 in 10.0 mi WSW 8.1 mph - N/A   Clear
5:53 AM 68.0 °F - 66.0 °F 93% 29.94 in 10.0 mi South 3.5 mph - N/A   Clear
6:53 AM 66.9 °F - 64.9 °F 93% 29.96 in 10.0 mi SSW 8.1 mph - N/A   Clear
7:53 AM 69.1 °F - 66.0 °F 90% 29.97 in 10.0 mi SW 8.1 mph - N/A   Clear
8:53 AM 73.0 °F - 66.9 °F 81% 29.98 in 10.0 mi West 6.9 mph - N/A   Clear
9:53 AM 73.9 °F - 66.9 °F 79% 29.98 in 10.0 mi West 6.9 mph - N/A   Clear
10:16 AM 73.9 °F - 66.9 °F 79% 30.00 in 10.0 mi West 6.9 mph - N/A   Mostly Cloudy
10:53 AM 77.0 °F - 68.0 °F 74% 30.00 in 10.0 mi SW 11.5 mph - N/A   Mostly Cloudy
12:53 PM 80.1 °F 82.3 °F 66.9 °F 64% 29.93 in 10.0 mi Calm Calm - N/A   Scattered Clouds
1:53 PM 79.0 °F - 69.1 °F 72% 29.95 in 10.0 mi WSW 6.9 mph - N/A   Mostly Cloudy
2:39 PM 78.1 °F - 69.1 °F 74% 29.95 in 10.0 mi NW 8.1 mph - N/A Thunderstorm Overcast
2:48 PM 73.4 °F - 69.8 °F 88% 29.96 in 2.0 mi NW 15.0 mph 31.1 mph 0.06 in Rain Light Rain
2:53 PM 70.0 °F - 68.0 °F 93% 29.94 in 4.0 mi NNW 12.7 mph 31.1 mph 0.08 in Rain Rain
3:03 PM 70.0 °F - 68.0 °F 93% 29.94 in 5.0 mi Variable 4.6 mph 17.3 mph 0.00 in Rain , Thunderstorm Light Rain
3:36 PM 73.9 °F - 70.0 °F 87% 29.95 in 10.0 mi SSW 9.2 mph - 0.01 in   Clear
3:53 PM 75.9 °F - 71.1 °F 85% 29.94 in 10.0 mi WSW 5.8 mph - 0.01 in   Clear
4:32 PM 75.0 °F - 71.1 °F 87% 29.94 in 10.0 mi SE 9.2 mph - N/A   Mostly Cloudy
4:53 PM 75.0 °F - 70.0 °F 84% 29.94 in 10.0 mi SSW 6.9 mph - N/A   Overcast
5:53 PM 78.1 °F - 68.0 °F 71% 29.94 in 10.0 mi Calm Calm - N/A   Partly Cloudy
6:53 PM 71.1 °F - 66.9 °F 87% 29.95 in 2.0 mi NNW 12.7 mph 21.9 mph 0.06 in Rain Rain
7:06 PM 70.0 °F - 66.9 °F 90% 29.96 in 10.0 mi NNW 4.6 mph - 0.00 in Rain Light Rain
7:53 PM 70.0 °F - 66.9 °F 90% 29.96 in 10.0 mi NNW 5.8 mph - 0.00 in   Partly Cloudy
8:53 PM 70.0 °F - 66.9 °F 90% 29.98 in 10.0 mi North 4.6 mph - N/A   Overcast
9:53 PM 68.0 °F - 64.9 °F 90% 29.99 in 10.0 mi Variable 4.6 mph - 0.00 in   Overcast
10:53 PM 66.9 °F - 63.0 °F 87% 30.00 in 10.0 mi North 5.8 mph - N/A   Overcast
11:53 PM 66.0 °F - 61.0 °F 84% 30.02 in 10.0 mi North 8.1 mph - N/A   Overcast